Miscellaneous Local Product
Issued by NWS Hastings, NE

Home | Current Version | Previous Version | Graphics & Text | Print | Product List | Glossary On
Versions: 1 2 3 4 5 6 7 8 9 10 11 12 13 14 15 16 17 18 19 20 21 22 23 24 25 26 27 28 29 30 31 32 33 34 35 36 37 38 39 40 41 42 43 44 45 46 47 48 49 50
923
AXUS43 KGID 271002
MISGRI

GID CWA HOURLY WEATHER ROUNDUP
NATIONAL WEATHER SERVICE HASTINGS NE
500 AM CDT WED APR 27 2016

NOTE: "FAIR" INDICATES FEW OR NO CLOUDS BELOW 12,000 FEET WITH NO
SIGNIFICANT WEATHER AND/OR OBSTRUCTIONS TO VISIBILITY.

...SOUTH CENTRAL NEBRASKA...

CITY           SKY/WX    TMP DP  RH WIND       PRES   REMARKS
GRAND ISLAND   CLOUDY    56  54  93 E12       29.46F
HASTINGS       LGT RAIN  56  54  93 E8        29.45F FOG
KEARNEY        CLOUDY    50  46  87 N15       29.47S
ORD            RAIN      48  47  96 N16       29.50F FOG
YORK           CLOUDY    55  55 100 NE8       29.44F
AURORA         CLOUDY    56  55  96 E7        29.46F
LEXINGTON      LGT RAIN  47  45  91 N22G29    29.55F
HOLDREGE       TSTM      48  47  96 NW20G26   29.50F
HEBRON         CLOUDY    58  55  92 SE3       29.45S

...NEBRASKA PANHANDLE...

CITY           SKY/WX    TMP DP  RH WIND       PRES   REMARKS
CHADRON        CLOUDY    37  35  92 NW14      29.83S WCI  28
ALLIANCE       CLOUDY    34  32  92 NW14G23   29.77F WCI  25
SCOTTSBLUFF    CLOUDY    34  30  85 NW13      29.84R WCI  25
SIDNEY         CLEAR     31  28  89 NW17      29.78F WCI  19

...WESTERN AND NORTH CENTRAL NEBRASKA...

CITY           SKY/WX    TMP DP  RH WIND       PRES   REMARKS
VALENTINE      RAIN      42  40  92 N13       29.71F
AINSWORTH      RAIN      43  43  99 N15       29.66F
ONEILL         LGT RAIN  47  46  95 NE18G24   29.60F
BROKEN BOW     RAIN      46  46 100 NW23G29   29.56F FOG
IMPERIAL       CLOUDY    38  33  82 NW26G38   29.70S WCI  26
NORTH PLATTE   LGT RAIN  43  40  89 NW18G30   29.65S
MCCOOK         CLOUDY    43  40  89 NW20G32   29.62S FOG

...EASTERN NEBRASKA...

CITY           SKY/WX    TMP DP  RH WIND       PRES   REMARKS
NORFOLK        RAIN      49  46  90 E15G28    29.52F FOG
SO SIOUX CITY  LGT RAIN  49  44  83 E21G32    29.60F
TEKAMAH        RAIN      50  48  93 E22G32    29.53F FOG
COLUMBUS       CLOUDY    52  45  76 NE24G30   29.50F
ALBION         LGT RAIN  50  49  93 E20G28    29.51F
OMAHA EPPLEY   LGT RAIN  53  50  89 E20G31    29.52F FOG
MILLARD        LGT RAIN  55  53  92 E9G18     29.53F
LINCOLN        CLOUDY    58  56  93 E26G37    29.37F
NEBRASKA CITY  LGT RAIN  56  56 100 E20       29.48F
BEATRICE       CLOUDY    57  56  94 SE13G20   29.36F
FALLS CITY     NOT AVBL

...NORTHERN KANSAS...

CITY           SKY/WX    TMP DP  RH WIND       PRES   REMARKS
GOODLAND       CLOUDY    38  35  89 NW24G31   29.68F WCI  27
HILL CITY      LGT RAIN  46  44  93 N28G36    29.55F
NORTON         RAIN      43  39  87 W28G36    29.58
PHILLIPSBURG   RAIN      46  46 100 W28G38    29.54R
SMITH CENTER   CLOUDY    50  48  93 SW10G26   29.48S
BELOIT         CLOUDY    57  54  88 SE10      29.44S
HAYS           CLOUDY    48  39  71 NW24G30   29.52S
RUSSELL        CLOUDY    50  46  86 NW21G35   29.50R
CONCORDIA      CLOUDY    57  55  93 S10       29.45F
SALINA         CLOUDY    56  52  86 S9        29.46F
TOPEKA         CLOUDY    58  55  90 SE6       29.48R



USA.gov is the U.S. government's official web portal to all federal, state and local government web resources and services.